#timestamp,LO_Frequency,Hit,Temp,Hum 
1479736815.6,286046978.7,N,0.0,0.0
1479736835.4,286046978.2,N,0.0,0.0
1479736855.2,286046979.9,N,0.0,0.0
1479736875.1,286046980.3,N,0.0,0.0
1479736876.0,286046980.3,N,0.0,0.0
1479736895.8,286046979.5,N,0.0,0.0
1479736915.7,286046979.1,N,0.0,0.0
1479736935.5,286046981.5,N,0.0,0.0
1479736955.3,286046979.4,N,0.0,0.0
1479736975.2,286046979.4,N,0.0,0.0
1479736995.9,286046979.4,N,0.0,0.0
1479737015.7,286046981.9,N,0.0,0.0
1479737035.6,286046979.3,N,0.0,0.0
1479737055.4,286046981.9,N,0.0,0.0
1479737075.3,286046981.7,N,0.0,0.0
1479737095.1,286046980.7,N,0.0,0.0
1479737096.0,286046980.7,N,0.0,0.0
1479737115.8,286046981.1,N,0.0,0.0
1479737135.7,286046980.5,N,0.0,0.0
1479737155.5,286046982.7,N,0.0,0.0
1479737175.3,286046984.7,N,0.0,0.0
1479737195.2,286046985.2,N,0.0,0.0
1479737215.0,286046982.4,N,0.0,0.0
1479737215.9,286046982.4,N,0.0,0.0
1479737235.8,286046982.7,N,0.0,0.0
1479737255.6,286046984.6,N,0.0,0.0
1479737275.4,286046982.1,N,0.0,0.0
1479737295.3,286046984.6,N,0.0,0.0
1479737315.1,286046985.0,N,0.0,0.0
1479737335.9,286046983.8,N,0.0,0.0
1479737355.7,286046983.7,N,0.0,0.0
1479737375.5,286046983.7,N,0.0,0.0
1479737395.4,286046986.8,N,0.0,0.0
1479737415.2,286046985.4,N,0.0,0.0
1479737435.0,286046986.5,N,0.0,0.0
1479737435.9,286046986.5,N,0.0,0.0
1479737455.8,286046985.5,N,0.0,0.0
1479737475.6,286046986.5,N,0.0,0.0
1479737495.5,286046985.3,N,0.0,0.0
1479737515.3,286046985.8,N,0.0,0.0
1479737535.1,286046988.4,N,0.0,0.0
1479737555.9,286046988.0,N,0.0,0.0
1479737575.7,286046987.2,N,0.0,0.0
1479737595.5,286046987.6,N,0.0,0.0
1479737615.4,286046987.4,N,0.0,0.0
1479737635.2,286046987.0,N,0.0,0.0
1479737655.1,286046989.7,N,0.0,0.0
1479737656.0,286046989.7,N,0.0,0.0
1479737675.8,286046986.9,N,0.0,0.0
1479737695.6,286046989.9,N,0.0,0.0
1479737715.5,286046987.8,N,0.0,0.0
1479737735.3,286046987.7,N,0.0,0.0
1479737755.2,286046985.3,N,0.0,0.0
1479737775.9,286046985.8,N,0.0,0.0
1479737795.7,286046985.5,N,0.0,0.0
1479737815.6,286046988.1,N,0.0,0.0
1479737835.4,286046988.0,N,0.0,0.0
1479737855.2,286046985.3,N,0.0,0.0
1479737875.1,286046987.0,N,0.0,0.0
1479737876.0,286046987.0,N,0.0,0.0
1479737895.8,286046989.2,N,0.0,0.0
1479737915.7,286046987.4,N,0.0,0.0
1479737935.5,286046989.8,N,0.0,0.0
1479737955.3,286046989.4,N,0.0,0.0
1479737975.2,286046988.9,N,0.0,0.0
1479737995.0,286046989.2,N,0.0,0.0
1479737995.9,286046989.2,N,0.0,0.0
1479738015.7,286046988.8,N,0.0,0.0
1479738035.6,286046988.7,N,0.0,0.0
1479738055.4,286046988.6,N,0.0,0.0
1479738075.3,286046989.7,N,0.0,0.0
1479738095.1,286046991.6,N,0.0,0.0
1479738115.8,286046991.0,N,0.0,0.0
1479738135.7,286046993.0,N,0.0,0.0
1479738155.5,286046992.8,N,0.0,0.0
1479738175.3,286046992.8,N,0.0,0.0
1479738195.2,286046990.5,N,0.0,0.0
1479738215.0,286046992.5,N,0.0,0.0
1479738215.9,286046992.5,N,0.0,0.0
1479738235.8,286046992.6,N,0.0,0.0
1479738255.6,286046992.0,N,0.0,0.0
1479738275.4,286046991.7,N,0.0,0.0
1479738295.3,286046993.6,N,0.0,0.0
1479738315.1,286046994.6,N,0.0,0.0
1479738335.9,286046994.0,N,0.0,0.0
1479738355.7,286046993.3,N,0.0,0.0
1479738375.5,286046994.0,N,0.0,0.0
1479738395.4,286046992.9,N,0.0,0.0
1479738415.2,286046990.4,N,0.0,0.0
1479738435.0,286046992.8,N,0.0,0.0
1479738435.9,286046992.8,N,0.0,0.0
1479738455.8,286046990.1,N,0.0,0.0
1479738475.6,286046991.4,N,0.0,0.0
1479738495.5,286046991.2,N,0.0,0.0
1479738515.3,286046991.6,N,0.0,0.0
1479738535.1,286046991.1,N,0.0,0.0
1479738555.9,286046991.1,N,0.0,0.0
1479738575.7,286046988.9,N,0.0,0.0
1479738595.5,286046988.6,N,0.0,0.0
1479738615.4,286046991.2,N,0.0,0.0
1479738635.2,286046988.5,N,0.0,0.0
1479738655.1,286046990.1,N,0.0,0.0
1479738656.0,286046990.1,N,0.0,0.0
1479738675.8,286046991.9,N,0.0,0.0
1479738695.6,286046994.7,N,0.0,0.0
1479738715.5,286046992.6,N,0.0,0.0
1479738735.3,286046992.9,N,0.0,0.0
1479738755.2,286046993.1,N,0.0,0.0
1479738775.9,286046994.5,N,0.0,0.0
1479738795.7,286046991.9,N,0.0,0.0
1479738815.6,286046992.1,N,0.0,0.0
1479738835.4,286046992.0,N,0.0,0.0
1479738855.2,286046994.4,N,0.0,0.0
1479738875.1,286046994.3,N,0.0,0.0
1479738876.0,286046994.3,N,0.0,0.0
1479738895.8,286046994.3,N,0.0,0.0
1479738915.7,286046994.2,N,0.0,0.0
1479738935.5,286046995.2,N,0.0,0.0
1479738955.3,286046996.3,N,0.0,0.0
1479738975.2,286046996.3,N,0.0,0.0
1479738995.0,286046995.1,N,0.0,0.0
1479738995.9,286046995.1,N,0.0,0.0
1479739015.8,286046997.1,N,0.0,0.0
1479739035.6,286046995.1,N,0.0,0.0
1479739055.4,286046995.4,N,0.0,0.0
1479739075.3,286046994.9,N,0.0,0.0
1479739095.1,286046997.2,N,0.0,0.0
1479739115.8,286046996.8,N,0.0,0.0
1479739135.7,286046998.6,N,0.0,0.0
1479739155.5,286046998.2,N,0.0,0.0
1479739175.4,286046998.1,N,0.0,0.0
1479739195.2,286047001.2,N,0.0,0.0
1479739215.0,286047001.2,N,0.0,0.0
1479739215.9,286047001.2,N,0.0,0.0
1479739235.8,286047000.1,N,0.0,0.0
1479739255.6,286047001.8,N,0.0,0.0
1479739275.4,286047001.3,N,0.0,0.0
1479739295.3,286047002.3,N,0.0,0.0
1479739315.1,286047000.4,N,0.0,0.0
1479739335.9,286047000.3,N,0.0,0.0
1479739355.7,286047001.2,N,0.0,0.0
1479739375.5,286047001.2,N,0.0,0.0
1479739395.4,286047000.1,N,0.0,0.0
1479739415.2,286047001.7,N,0.0,0.0
1479739435.0,286047002.4,N,0.0,0.0
1479739436.0,286047002.4,N,0.0,0.0
1479739455.8,286046999.9,N,0.0,0.0
1479739475.6,286047000.0,N,0.0,0.0
1479739495.5,286047000.1,N,0.0,0.0
1479739515.3,286047002.2,N,0.0,0.0
1479739535.1,286047001.8,N,0.0,0.0
1479739555.9,286047002.5,N,0.0,0.0
1479739575.7,286047002.2,N,0.0,0.0
1479739595.6,286047001.9,N,0.0,0.0
1479739615.4,286047001.9,N,0.0,0.0
1479739635.2,286046999.9,N,0.0,0.0
1479739655.1,286047002.2,N,0.0,0.0
1479739656.0,286047002.2,N,0.0,0.0
1479739675.8,286047002.5,N,0.0,0.0
1479739695.7,286047002.7,N,0.0,0.0
1479739715.5,286046999.8,N,0.0,0.0
1479739735.3,286047004.0,N,0.0,0.0
1479739755.2,286047002.2,N,0.0,0.0
1479739775.9,286047001.4,N,0.0,0.0
1479739795.7,286047004.2,N,0.0,0.0
1479739815.6,286047004.1,N,0.0,0.0
1479739835.4,286047004.2,N,0.0,0.0
1479739855.3,286047003.2,N,0.0,0.0
1479739875.1,286047004.4,N,0.0,0.0
1479739876.0,286047004.4,N,0.0,0.0
1479739895.8,286047005.6,N,0.0,0.0
1479739915.7,286047005.6,N,0.0,0.0
1479739935.5,286047003.0,N,0.0,0.0
1479739955.3,286047005.6,N,0.0,0.0
1479739975.2,286047007.4,N,0.0,0.0
1479739995.0,286047005.3,N,0.0,0.0
1479739995.9,286047005.3,N,0.0,0.0
1479740015.8,286047006.0,N,0.0,0.0
1479740035.6,286047005.6,N,0.0,0.0
1479740055.4,286047005.5,N,0.0,0.0
1479740075.3,286047003.7,N,0.0,0.0
1479740095.1,286047003.1,N,0.0,0.0
1479740115.9,286047005.6,N,0.0,0.0
1479740135.7,286047005.9,N,0.0,0.0
1479740155.5,286047004.0,N,0.0,0.0
1479740175.4,286047003.1,N,0.0,0.0
1479740195.2,286047005.9,N,0.0,0.0
1479740215.0,286047005.6,N,0.0,0.0
1479740215.9,286047005.6,N,0.0,0.0
1479740235.8,286047004.4,N,0.0,0.0
1479740255.6,286047003.6,N,0.0,0.0
1479740275.5,286047004.7,N,0.0,0.0
1479740295.3,286047006.8,N,0.0,0.0
1479740315.1,286047006.4,N,0.0,0.0
1479740335.9,286047008.8,N,0.0,0.0
1479740355.7,286047006.6,N,0.0,0.0
1479740375.5,286047008.9,N,0.0,0.0
1479740395.4,286047009.0,N,0.0,0.0
